| time (UTC) | temp F | wind direction | speed MPH | gust MPH | rain 1hr in | rain 24hr in | rain mn in | humidity % | barometer mb |
| 20260502193926 | 44 | 191 | 2.0 | 7.0 | 0.00 | 0.00 | 0.00 | 100 | |
| 20260502191925 | 45 | 177 | 0.0 | 5.0 | 0.00 | 0.00 | 0.00 | 100 | |
| 20260502185924 | 47 | 158 | 4.0 | 6.0 | 0.00 | 0.00 | 0.00 | 100 | |
| 20260502183923 | 47 | 135 | 1.0 | 3.0 | 0.00 | 0.00 | 0.00 | 100 | |
| 20260502181922 | 49 | 142 | 0.0 | 0.0 | 0.00 | 0.00 | 0.00 | 100 | |
| 20260502163916 | 61 | 298 | 0.0 | 0.0 | 0.00 | 0.00 | 0.00 | 100 | |
| 20260502161915 | 60 | 281 | 0.0 | 3.0 | 0.00 | 0.00 | 0.00 | 100 | |
| 20260502151911 | 60 | 295 | 2.0 | 5.0 | 0.00 | 0.00 | 0.00 | 100 | |
| 20260502121901 | 63 | 348 | 3.0 | 4.0 | 0.00 | 0.00 | 0.00 | 100 | |
| 20260502115900 | 63 | 195 | 6.0 | 6.0 | 0.00 | 0.00 | 0.00 | 100 | |
| 20260502113859 | 61 | 209 | 0.0 | 4.0 | 0.00 | 0.00 | 0.00 | 100 | |
| 20260502111858 | 59 | 288 | 0.0 | 5.0 | 0.00 | 0.00 | 0.00 | 100 | |
| 20260502105856 | 58 | 296 | 5.0 | 6.0 | 0.00 | 0.00 | 0.00 | 100 | |
| 20260502103855 | 56 | 11 | 3.0 | 6.0 | 0.00 | 0.00 | 0.00 | 100 | |
| 20260502101854 | 56 | 307 | 1.0 | 8.0 | 0.00 | 0.00 | 0.00 | 100 | |
| 20260502065843 | 42 | 101 | 0.0 | 0.0 | 0.00 | 0.00 | 0.00 | 100 | |
| 20260502063841 | 40 | 101 | 0.0 | 0.0 | 0.00 | 0.00 | 0.00 | 100 | |
| 20260502061840 | 37 | 101 | 0.0 | 0.0 | 0.00 | 0.00 | 0.00 | 100 | |
| 20260502055839 | 36 | 101 | 0.0 | 0.0 | 0.00 | 0.00 | 0.00 | 100 | |
| 20260502053838 | 33 | 101 | 0.0 | 0.0 | 0.00 | 0.00 | 0.00 | 100 | |
| 20260502051837 | 31 | 101 | 0.0 | 0.0 | 0.00 | 0.00 | 0.00 | 100 | |
| 20260502045836 | 30 | 101 | 0.0 | 0.0 | 0.00 | 0.00 | 0.00 | 100 | |
| 20260502043911 | 28 | 101 | 0.0 | 0.0 | 0.00 | 0.00 | 0.00 | 100 | |
| 20260502043835 | 28 | 101 | 0.0 | 0.0 | 0.00 | 0.00 | 0.00 | 100 | |
| 20260502041834 | 28 | 101 | 0.0 | 0.0 | 0.00 | 0.00 | 0.00 | 100 | |
| 20260502035832 | 28 | 101 | 0.0 | 0.0 | 0.00 | 0.00 | 0.00 | 100 | |
| 20260502033832 | 28 | 101 | 0.0 | 0.0 | 0.00 | 0.00 | 0.00 | 100 | |
| 20260502031830 | 28 | 101 | 0.0 | 0.0 | 0.00 | 0.00 | 0.00 | 100 | |
| 20260502025829 | 28 | 101 | 0.0 | 0.0 | 0.00 | 0.00 | 0.00 | 100 | |
| 20260502023828 | 28 | 101 | 0.0 | 0.0 | 0.00 | 0.00 | 0.00 | 100 | |
| 20260502021827 | 28 | 98 | 0.0 | 0.0 | 0.00 | 0.00 | 0.00 | 100 | |
| 20260502015825 | 28 | 139 | 0.0 | 0.0 | 0.00 | 0.00 | 0.00 | 100 | |
| 20260502013824 | 28 | 139 | 0.0 | 0.0 | 0.00 | 0.00 | 0.00 | 100 | |
| 20260502011823 | 29 | 139 | 0.0 | 0.0 | 0.00 | 0.00 | 0.00 | 100 | |
| 20260502005822 | 29 | 139 | 0.0 | 0.0 | 0.00 | 0.00 | 0.00 | 100 | |
| 20260502003821 | 31 | 139 | 0.0 | 0.0 | 0.00 | 0.00 | 0.00 | 100 | |
| 20260502001820 | 31 | 139 | 0.0 | 0.0 | 0.00 | 0.00 | 0.00 | 100 | |
| 20260501235819 | 32 | 139 | 0.0 | 0.0 | 0.00 | 0.00 | 0.00 | 100 | |
| 20260501233817 | 32 | 120 | 0.0 | 2.0 | 0.00 | 0.00 | 0.00 | 100 | |
| 20260501231816 | 33 | 119 | 0.0 | 3.0 | 0.00 | 0.00 | 0.00 | 100 | |
| 20260501225816 | 32 | 160 | 0.0 | 0.0 | 0.00 | 0.00 | 0.00 | 100 | |
| 20260501223814 | 32 | 160 | 0.0 | 0.0 | 0.00 | 0.00 | 0.00 | 100 | |
| 20260501221813 | 32 | 160 | 0.0 | 0.0 | 0.00 | 0.00 | 0.00 | 100 | |
| 20260501215813 | 33 | 160 | 0.0 | 0.0 | 0.00 | 0.00 | 0.00 | 100 | |
| 20260501213811 | 34 | 160 | 0.0 | 0.0 | 0.00 | 0.00 | 0.00 | 100 | |
| 20260501211809 | 34 | 160 | 0.0 | 0.0 | 0.00 | 0.00 | 0.00 | 100 | |
| 20260501205808 | 34 | 160 | 0.0 | 0.0 | 0.00 | 0.00 | 0.00 | 100 | |
| 20260501203807 | 35 | 160 | 0.0 | 0.0 | 0.00 | 0.00 | 0.00 | 100 | |
| 20260501201806 | 36 | 160 | 0.0 | 0.0 | 0.00 | 0.00 | 0.00 | 100 | |
| 20260501195805 | 36 | 160 | 0.0 | 0.0 | 0.00 | 0.00 | 0.00 | 100 |